When you browse on this site, cookies collect data to enhance your experience and personalize the content and advertising you see.
Visit our Privacy Policy to learn more. By continuing to use the site, you agree to this use of cookies and data.
  • In Österreich
  • Länderverzeichnis
  • Für 7 Tage
  • Wassertemperatur
  • Satellitenkarten
  • Wetterkarte
  • News
  • Widgets
  • user-avatar
    Anmelden

    Stündliche Wetter Eisenstadt

    Heute, 24 März, Sonntag

    Zeit Temperatur Niederschläge Wind Luftdruck Luftfeuchtigkeit
    00:00 +10°C° 0 mm 1 m/S 728 mmHg 73%
    01:00 +10°C° 0 mm 1 m/S 728 mmHg 71%
    02:00 +10°C° 0 mm 1 m/S 728 mmHg 71%
    03:00 +10°C° 0 mm 1 m/S 727 mmHg 71%
    04:00 +9°C° 0 mm 1 m/S 727 mmHg 71%
    05:00 +10°C° 0 mm 1 m/S 727 mmHg 70%
    06:00 +10°C° 0 mm 1 m/S 727 mmHg 70%
    07:00 +10°C° 0 mm 1 m/S 727 mmHg 69%
    08:00 +12°C° 0 mm 1 m/S 727 mmHg 63%
    09:00 +14°C° 0 mm 1 m/S 727 mmHg 57%
    10:00 +16°C° 0 mm 1 m/S 727 mmHg 51%
    11:00 +18°C° 0 mm 1 m/S 726 mmHg 49%
    12:00 +19°C° 0 mm 1 m/S 726 mmHg 47%
    13:00 +20°C° 0 mm 1 m/S 725 mmHg 45%
    14:00 +20°C° 0 mm 1 m/S 725 mmHg 46%
    15:00 +18°C° 0 mm 2 m/S 724 mmHg 46%
    16:00 +18°C° 0 mm 2 m/S 724 mmHg 47%
    17:00 +18°C° 0 mm 1 m/S 723 mmHg 53%
    18:00 +15°C° 0 mm 1 m/S 723 mmHg 59%
    19:00 +13°C° 0 mm 1 m/S 723 mmHg 65%
    20:00 +13°C° 0 mm 1 m/S 723 mmHg 67%
    21:00 +12°C° 0 mm 1 m/S 723 mmHg 70%
    22:00 +12°C° 0 mm 2 m/S 723 mmHg 72%
    23:00 +10°C° 0 mm 2 m/S 723 mmHg 73%

    Morgen, 25 März, Montag

    Zeit Temperatur Niederschläge Wind Luftdruck Luftfeuchtigkeit
    00:00 +10°C° 0 mm 2 m/S 723 mmHg 73%
    01:00 +10°C° 0 mm 2 m/S 722 mmHg 74%
    02:00 +9°C° 0 mm 2 m/S 722 mmHg 77%
    03:00 +9°C° 0 mm 2 m/S 722 mmHg 80%
    04:00 +8°C° 0 mm 2 m/S 721 mmHg 84%
    05:00 +8°C° 0 mm 2 m/S 721 mmHg 81%
    06:00 +8°C° 0 mm 3 m/S 721 mmHg 79%
    07:00 +8°C° 0 mm 3 m/S 721 mmHg 77%
    08:00 +10°C° 0 mm 4 m/S 721 mmHg 68%
    09:00 +10°C° 0 mm 5 m/S 721 mmHg 59%
    10:00 +12°C° 0 mm 5 m/S 721 mmHg 51%
    11:00 +12°C° 0 mm 5 m/S 721 mmHg 50%
    12:00 +11°C° 0 mm 6 m/S 721 mmHg 48%
    13:00 +13°C° 0 mm 6 m/S 721 mmHg 47%
    14:00 +11°C° 0.2 mm 6 m/S 721 mmHg 48%
    15:00 +10°C° 0.2 mm 5 m/S 721 mmHg 48%
    16:00 +9°C° 0.2 mm 5 m/S 720 mmHg 48%
    17:00 +7°C° 0.3 mm 5 m/S 721 mmHg 53%
    18:00 +6°C° 0.3 mm 5 m/S 721 mmHg 58%
    19:00 +5°C° 0.3 mm 5 m/S 722 mmHg 63%
    20:00 +3°C° 0.2 mm 5 m/S 723 mmHg 63%
    21:00 +4°C° 0.2 mm 4 m/S 723 mmHg 64%
    22:00 +3°C° 0.2 mm 4 m/S 724 mmHg 64%
    23:00 +3°C° 0 mm 4 m/S 725 mmHg 64%

    übermorgen, 26 März, Dienstag

    Zeit Temperatur Niederschläge Wind Luftdruck Luftfeuchtigkeit
    00:00 +3°C° 0 mm 4 m/S 725 mmHg 65%
    01:00 +3°C° 0 mm 4 m/S 725 mmHg 65%
    02:00 +1°C° 0 mm 4 m/S 726 mmHg 67%
    03:00 +1°C° 0 mm 4 m/S 726 mmHg 69%
    04:00 +1°C° 0 mm 4 m/S 726 mmHg 70%
    05:00 +1°C° 0 mm 5 m/S 727 mmHg 70%
    06:00 +1°C° 0 mm 5 m/S 727 mmHg 70%
    07:00 +1°C° 0 mm 5 m/S 728 mmHg 69%
    08:00 +2°C° 0 mm 6 m/S 728 mmHg 64%
    09:00 +3°C° 0 mm 6 m/S 728 mmHg 59%
    10:00 +4°C° 0 mm 7 m/S 729 mmHg 54%
    11:00 +5°C° 0 mm 7 m/S 729 mmHg 51%
    12:00 +6°C° 0 mm 7 m/S 729 mmHg 48%
    13:00 +8°C° 0 mm 7 m/S 728 mmHg 45%
    14:00 +8°C° 0 mm 7 m/S 728 mmHg 44%
    15:00 +8°C° 0 mm 6 m/S 728 mmHg 43%
    16:00 +8°C° 0 mm 6 m/S 728 mmHg 42%
    17:00 +6°C° 0 mm 5 m/S 728 mmHg 47%
    18:00 +5°C° 0 mm 4 m/S 728 mmHg 53%
    19:00 +3°C° 0 mm 3 m/S 729 mmHg 59%
    20:00 +3°C° 0 mm 3 m/S 729 mmHg 62%
    21:00 +3°C° 0 mm 2 m/S 729 mmHg 65%
    22:00 +3°C° 0 mm 2 m/S 729 mmHg 68%
    23:00 +2°C° 0 mm 3 m/S 730 mmHg 69%

    27 März, Mittwoch

    Zeit Temperatur Niederschläge Wind Luftdruck Luftfeuchtigkeit
    00:00 +2°C° 0 mm 3 m/S 730 mmHg 70%
    01:00 +1°C° 0 mm 4 m/S 730 mmHg 71%
    02:00 +1°C° 0 mm 3 m/S 730 mmHg 72%
    03:00 +1°C° 0 mm 3 m/S 730 mmHg 74%
    04:00 +1°C° 0 mm 3 m/S 730 mmHg 75%
    05:00 +1°C° 0 mm 3 m/S 730 mmHg 74%
    06:00 +2°C° 0 mm 3 m/S 730 mmHg 72%
    07:00 +2°C° 0 mm 3 m/S 730 mmHg 71%
    08:00 +3°C° 0 mm 4 m/S 730 mmHg 66%
    09:00 +4°C° 0 mm 4 m/S 731 mmHg 60%
    10:00 +5°C° 0 mm 5 m/S 731 mmHg 55%
    11:00 +6°C° 0 mm 5 m/S 731 mmHg 53%
    12:00 +7°C° 0 mm 5 m/S 731 mmHg 50%
    13:00 +8°C° 0 mm 5 m/S 731 mmHg 47%
    14:00 +7°C° 0 mm 5 m/S 730 mmHg 48%
    15:00 +7°C° 0 mm 5 m/S 730 mmHg 49%
    16:00 +7°C° 0 mm 5 m/S 730 mmHg 49%
    17:00 +6°C° 0 mm 4 m/S 730 mmHg 54%
    18:00 +5°C° 0 mm 3 m/S 731 mmHg 60%
    19:00 +4°C° 0 mm 2 m/S 731 mmHg 65%
    20:00 +4°C° 0 mm 2 m/S 731 mmHg 67%
    21:00 +3°C° 0 mm 2 m/S 732 mmHg 68%
    22:00 +3°C° 0 mm 2 m/S 732 mmHg 70%
    23:00 +3°C° 0 mm 2 m/S 732 mmHg 70%

    28 März, Donnerstag

    Zeit Temperatur Niederschläge Wind Luftdruck Luftfeuchtigkeit
    00:00 +3°C° 0 mm 2 m/S 732 mmHg 71%
    01:00 +3°C° 0 mm 2 m/S 732 mmHg 71%
    02:00 +2°C° 0 mm 2 m/S 732 mmHg 73%
    03:00 +2°C° 0 mm 2 m/S 732 mmHg 75%
    04:00 +2°C° 0 mm 2 m/S 732 mmHg 76%
    05:00 +4°C° 0 mm 1 m/S 732 mmHg 76%
    06:00 +4°C° 0 mm 1 m/S 732 mmHg 75%
    07:00 +5°C° 0 mm 1 m/S 732 mmHg 75%
    08:00 +5°C° 0 mm 2 m/S 732 mmHg 68%
    09:00 +7°C° 0 mm 2 m/S 733 mmHg 62%
    10:00 +9°C° 0 mm 3 m/S 733 mmHg 55%
    11:00 +10°C° 0 mm 3 m/S 733 mmHg 53%
    12:00 +10°C° 0 mm 3 m/S 732 mmHg 51%
    13:00 +11°C° 0 mm 3 m/S 732 mmHg 49%
    14:00 +11°C° 0 mm 3 m/S 732 mmHg 50%
    15:00 +11°C° 0 mm 3 m/S 732 mmHg 50%
    16:00 +11°C° 0 mm 3 m/S 731 mmHg 50%
    17:00 +9°C° 0 mm 2 m/S 731 mmHg 56%
    18:00 +8°C° 0 mm 2 m/S 731 mmHg 62%
    19:00 +7°C° 0 mm 1 m/S 731 mmHg 68%
    20:00 +7°C° 0 mm 1 m/S 732 mmHg 70%
    21:00 +7°C° 0 mm 1 m/S 732 mmHg 72%
    22:00 +6°C° 0 mm 1 m/S 732 mmHg 73%
    23:00 +6°C° 0 mm 1 m/S 732 mmHg 75%

    29 März, Freitag

    Zeit Temperatur Niederschläge Wind Luftdruck Luftfeuchtigkeit
    00:00 +6°C° 0 mm 1 m/S 732 mmHg 77%
    01:00 +6°C° 0 mm 1 m/S 732 mmHg 79%
    02:00 +4°C° 0 mm 2 m/S 732 mmHg 80%
    03:00 +4°C° 0 mm 2 m/S 732 mmHg 82%
    04:00 +4°C° 0 mm 2 m/S 732 mmHg 83%
    05:00 +4°C° 0 mm 2 m/S 732 mmHg 82%
    06:00 +5°C° 0 mm 2 m/S 732 mmHg 81%
    07:00 +5°C° 0 mm 2 m/S 733 mmHg 80%
    08:00 +7°C° 0 mm 2 m/S 733 mmHg 71%
    09:00 +9°C° 0 mm 2 m/S 733 mmHg 63%
    10:00 +10°C° 0 mm 2 m/S 733 mmHg 55%
    11:00 +12°C° 0 mm 2 m/S 732 mmHg 52%
    12:00 +13°C° 0 mm 2 m/S 732 mmHg 50%
    13:00 +13°C° 0 mm 2 m/S 732 mmHg 47%
    14:00 +13°C° 0 mm 2 m/S 731 mmHg 47%
    15:00 +13°C° 0 mm 2 m/S 731 mmHg 47%
    16:00 +13°C° 0 mm 2 m/S 730 mmHg 47%
    17:00 +12°C° 0 mm 2 m/S 730 mmHg 52%
    18:00 +9°C° 0 mm 2 m/S 730 mmHg 58%
    19:00 +9°C° 0 mm 1 m/S 730 mmHg 64%
    20:00 +8°C° 0 mm 1 m/S 730 mmHg 66%
    21:00 +8°C° 0 mm 1 m/S 731 mmHg 68%
    22:00 +6°C° 0 mm 2 m/S 731 mmHg 70%
    23:00 +7°C° 0 mm 1 m/S 731 mmHg 71%
    Mehr zeigen